This is the latest recevied weather packets stored in our database for station/object DB0FN-10. If no packets are shown the sender has not sent any weather packets the latest 10 day(s).
| Time | Temp. | Humidity | Pressure | Rain* | Wind** | Luminosity | Snow |
|---|---|---|---|---|---|---|---|
| 1787567511 | 25.56° C | 42% | 1022.7 hPa | - | - | - | - |
| 1787566611 | 25° C | 41% | 1022.9 hPa | - | - | - | - |
| 1787565711 | 25° C | 42% | 1023 hPa | - | - | - | - |
| 1787564811 | 25° C | 43% | 1023.3 hPa | - | - | - | - |
| 1787563911 | 25° C | 43% | 1023.5 hPa | - | - | - | - |
| 1787563011 | 25° C | 43% | 1023.6 hPa | - | - | - | - |
| 1787562110 | 24.44° C | 43% | 1023.6 hPa | - | - | - | - |
| 1787561210 | 24.44° C | 45% | 1023.7 hPa | - | - | - | - |
| 1787560310 | 23.89° C | 43% | 1023.8 hPa | - | - | - | - |
| 1787559410 | 23.33° C | 44% | 1023.8 hPa | - | - | - | - |
| 1787558510 | 22.78° C | 43% | 1023.7 hPa | - | - | - | - |
| 1787557610 | 22.22° C | 47% | 1023.7 hPa | - | - | - | - |
| 1787556710 | 22.22° C | 44% | 1023.7 hPa | - | - | - | - |
| 1787555810 | 21.67° C | 44% | 1023.7 hPa | - | - | - | - |
| 1787554910 | 21.11° C | 46% | 1023.7 hPa | - | - | - | - |
| 1787554010 | 20.56° C | 46% | 1023.7 hPa | - | - | - | - |
| 1787553110 | 20.56° C | 46% | 1023.6 hPa | - | - | - | - |
| 1787552210 | 19.44° C | 48% | 1023.6 hPa | - | - | - | - |
| 1787551310 | 20.56° C | 45% | 1023.6 hPa | - | - | - | - |
| 1787550409 | 20° C | 45% | 1023.6 hPa | - | - | - | - |
| 1787549509 | 20° C | 45% | 1023.6 hPa | - | - | - | - |
| 1787548609 | 20° C | 44% | 1023.5 hPa | - | - | - | - |
| 1787547709 | 20° C | 44% | 1023.6 hPa | - | - | - | - |
| 1787546809 | 20.56° C | 43% | 1023.6 hPa | - | - | - | - |
| 1787545909 | 20.56° C | 43% | 1023.7 hPa | - | - | - | - |
* Rain since midnight (hover to see other rain measurements)
** Current wind speed in m/s (hover to see current wind gust speed)